Location: Volkssternwarte_EN
(51.3230°N, 7.4010°E)
Time: 19:04:03
(UTC+02:00)

N. Korean satellite - Pass Details

Date: 28 September 2021
Orbit: 450 x 495 km, 97.3° (Epoch: 17 October)

Event Time Altitude Azimuth Distance (km) Brightness Sun altitude
Rises 05:39:46 0° 31° (NNE) 2,536 11.0 -17.2°
Reaches altitude 10° 05:42:55 10° 63° (ENE) 1,662 10.6 -16.7°
Maximum altitude 05:44:28 12° 89° (E) 1,520 10.2 -16.5°
Drops below altitude 10° 05:46:02 10° 115° (ESE) 1,666 10.0 -16.3°
Sets 05:49:12 0° 146° (SE) 2,550 10.5 -15.8°
